Date,TemperatureHighF,TemperatureAvgF,TemperatureLowF,DewpointHighF,DewpointAvgF,DewpointLowF,HumidityHigh,HumidityAvg,HumidityLow,PressureMaxIn,PressureMinIn,WindSpeedMaxMPH,WindSpeedAvgMPH,GustSpeedMaxMPH,PrecipitationSumIn
2013-3-1,39,34,32,27,24,22,75,68,57,0.00,40.00,0,-999,0,0.00
2013-3-2,41,33,26,28,23,17,86,68,45,0.00,40.00,0,-999,0,0.00
2013-3-3,35,28,21,18,14,12,74,58,40,0.00,40.00,0,-999,0,0.00
2013-3-4,55,37,23,12,7,-1,61,34,12,0.00,40.00,0,-999,0,0.00
2013-3-5,43,39,34,38,25,9,100,64,24,0.00,40.00,0,-999,0,0.88
2013-3-6,39,32,28,37,23,18,100,69,53,0.00,40.00,0,-999,0,0.58
2013-3-7,43,33,28,25,23,21,83,68,46,0.00,40.00,0,-999,0,0.00
2013-3-8,52,37,27,22,20,17,73,53,28,0.00,40.00,0,-999,0,0.00
2013-3-9,63,47,34,26,22,19,56,39,18,0.00,40.00,0,-999,0,0.00
2013-3-10,62,52,45,31,28,25,48,39,26,0.00,40.00,0,-999,0,0.00
2013-3-11,53,47,43,49,39,31,100,73,46,0.00,40.00,0,-999,0,0.29
2013-3-12,55,49,39,51,39,23,100,73,40,0.00,40.00,0,-999,0,1.20
2013-3-13,49,38,29,28,20,12,62,48,35,0.00,40.00,0,-999,0,0.01
2013-3-14,48,36,26,15,6,-100,58,35,18,0.00,40.00,0,-999,0,0.00
2013-3-15,64,45,33,36,22,11,58,40,28,0.00,40.00,0,-999,0,0.00
2013-3-16,80,64,53,49,41,36,64,46,23,0.00,40.00,0,-999,0,0.01
2013-3-17,60,53,35,49,45,35,100,75,62,0.00,40.00,0,-999,0,0.01
2013-3-18,35,33,32,35,33,32,100,100,100,0.00,40.00,0,-999,0,0.61
2013-3-19,61,47,32,45,25,1,100,51,18,0.00,40.00,0,-999,0,0.32
2013-3-20,56,42,31,21,5,0,57,23,11,0.00,40.00,0,-999,0,0.00
2013-3-21,39,30,23,26,9,4,74,42,27,0.00,40.00,0,-999,0,0.00
2013-3-22,50,39,21,17,11,7,62,34,20,0.00,40.00,0,-999,0,0.00
2013-3-23,55,43,37,33,25,13,70,50,33,0.00,40.00,0,-999,0,0.00
2013-3-24,45,37,32,38,34,29,100,91,54,0.00,40.00,0,-999,0,0.96
2013-3-25,40,33,29,33,28,21,100,82,54,0.00,40.00,0,-999,0,0.16
2013-3-26,40,33,29,22,21,19,70,61,47,0.00,40.00,0,-999,0,0.01
2013-3-27,42,34,30,23,20,16,75,56,36,0.00,40.00,0,-999,0,0.00
2013-3-28,49,44,36,19,17,16,47,35,27,0.00,40.00,0,-999,0,0.00
2013-3-29,60,44,33,25,18,12,51,38,15,0.00,40.00,0,-999,0,0.00
2013-3-30,64,50,38,38,27,22,64,44,22,0.00,40.00,0,-999,0,0.00
2013-3-31,61,51,44,52,44,-100,100,82,58,0.00,40.00,0,-999,0,0.20